SL-16 DEB, 24284

Orbit data source: Space-Track

SL-16 DEB, 24284 is space debris in LEO originally from a launch on Tue, 31 Oct 1995 UTC launched from the Tyuratam Missile And Space Complex (TTMTR). Debris objects in space refer to the collection of defunct objects orbiting the Earth. Examples of debris include non-operational satellites, rocket bodies, and fragments generated from explosions, collisions, or faulty payload assembly.

Loading next visibility...
Identifier
24284, 1995-058G
Orbit
LEO
Country
Flag of CISCIS
Related business
Manufacturer
Unknown
Mission
Spacecraft
Bus & Motor
Unknown
Mass
Unknown
Launch date (UTC)
1995-10-31 (31 years ago)
Launch vehicle
Unknown
Launch site
Tyuratam Missile And Space Complex (TTMTR)
Object type
Payload
Rocket body
Debris
Shape & HBR
Unknown shape, 0.2 m
Radar Cross Section
Medium (>0.1 m² and <1 m²)

Expand to show TLE details & history
Last TLE update: 12 hours ago

TLE from 12 hours ago
0 SL-16 DEB
1 24284U 95058G   26266.84589107  .00000159  00000-0  97011-4 0  9998
2 24284  70.8627 190.5987 0013297 334.1532  25.8927 14.20599185597754
Epoch: 2026-09-23T20:18Z
TLE epoch observation values (Epoch: 2026-09-23T20:18:04.988Z)
Latitude
Longitude
-116.61324°
Altitude
817.111 km
Speed
7.449 km/s
True Right ascension
12h 42m 23s
True Declination
0° 00' 00"
Sunlit
Object was in daylight at epoch
Visualization orbit readout
Latitude
Unknown
Longitude
Unknown
Altitude
Unknown
Speed
Unknown
Apparent Right ascension
Unknown
Apparent Declination
Unknown
Sunlit
N/A
Visualization observer readout
Local Sidereal Time
01:20:27
Azimuth
Unknown
Elevation
Unknown
Doppler factor
Unknown
Orbital elements
Apogee altitude
830.833 km
Perigee altitude
811.687 km
Semi-major axis
7,199.397 km
Eccentricity
0.00133
Inclination
70.8627°
RAAN
190.5987°
Arg. of periapsis
334.1532°
True anomaly
25.95934°
Mean anomaly
25.8927°
Eccentric anomaly
25.92601°
Mean motion
3.55303 °/min
Orbital period
101.32 mins
BSTAR
0.000097011
Loading maneuver chart data...
Computing Atmospheric mass density...
Loading historical data...
Loading historical data...
Loading historical data...
Loading historical data...
Loading historical data...
Loading historical data...
Loading historical data...

Documentation

Showing up to 5 results
|